Notices

What's New in latest Release from April 7th, 2021:

- Updated Glossary, including Speed of Maximum Gust, and Total Hourly Precipitation

- Updated national and regional climate services offices contacts and prices information

- Addition of station inventory lists for 1981-2010, 1971-2000, and 1961-1990 Normals.

If you haven't already, please take our survey and provide feedback about our website: https://eccc.sondage-survey.ca/f/LanguageSelection.aspx?s=442ca660-fcf1-47c0-95a9-59707d6fd709

Hourly Data Report for April 10, 2020

CLYDE RIVER A
NUNAVUT
Current Station Operator: NAVCAN

70°29'09.000" N
68°31'01.000" W
26.50 m
2400804
71090
YCY

Download Data

Hourly Data (April 2020)
Hourly Data Report for April 10, 2020
TIME
LST
Temp Definition
°C
Dew Point Definition
°C
Rel Hum Definition
%
Precip. Amount Definition
mm

Wind Dir Definition
10's deg

Wind Spd Definition
km/h
Visibility Definition
km
Stn Press Definition
kPa
Hmdx Definition


Wind Chill Definition


Weather Definition


00:00 -15.1 -16.9 86 0.0 32 26 16.1 101.85   -25 LegendNANA
01:00 -14.4 -16.3 86 0.0 32 32 16.1 101.84   -26 LegendNANA
02:00 -15.1 -17.8 80 0.0 32 28 16.1 101.85   -26 LegendNANA
03:00 -14.4 -16.9 82 0.0 32 24 16.1 101.89   -24 LegendNANA
04:00 -15.3 -18.2 79 0.0 32 30 16.1 101.89   -26 LegendNANA
05:00 -13.6 -16.7 78 0.0 30 24 16.1 101.93   -23 LegendNANA
06:00 -13.6 -15.3 87 0.0 33 30 14.5 101.95   -24 LegendNANA
07:00 -13.5 -15.4 86 0.0 32 34 11.3 101.96   -25 LegendNANA
08:00 -14.3 -16.2 86 0.0 33 34 11.3 101.97   -26 LegendNANA
09:00 -14.0 -15.6 88 0.0 33 37 1.6 101.97   -26 Snow
10:00 -12.4 -13.9 89 0.0 33 39 1.2 101.98   -24 Snow
11:00 -11.5 -13.1 88 0.0 33 43 2.0 101.95   -23 Snow,Blowing Snow
12:00 -11.4 -12.9 89 0.0 33 45 1.2 101.92   -23 Snow,Blowing Snow
13:00 -11.1 -12.6 89 0.0 33 43 2.0 101.95   -23 Snow,Blowing Snow
14:00 -11.0 -12.5 89 0.0 32 39 4.8 101.98   -22 Snow
15:00 -11.3 -12.6 90 0.0 32 41 2.4 101.94   -23 Snow,Blowing Snow
16:00 -11.3 -12.9 88 0.0 32 30 6.4 102.01   -21 Snow
17:00 -12.3 -13.6 90 0.0 32 30 12.9 102.01   -23 Snow
18:00 -13.4 -14.7 90 0.0 32 28 16.1 102.02   -24 Snow
19:00 -14.3 -15.3 92 0.0 32 28 16.1 102.01   -25 Snow
20:00 -14.9 -15.9 92 0.0 32 28 16.1 101.99   -26 Snow
21:00 -14.9 -15.9 92 0.0 33 30 14.5 101.98   -26 Snow
22:00 -15.0 -16.0 92 0.0 32 34 2.4 101.90   -27 Snow
23:00 -15.7 -16.9 91 0.0 33 30 4.8 101.87   -27 Snow

Notes on Data Quality.

Legend

  • E = Estimated
  • M = Missing
  • NA = Not Available*
  • [empty] = Indicates an unobserved value
Date modified: